Retour au catalogue

STARLINK-3208

ActifCommunicationsVLEO
NORAD 49769·PAYLOAD·🇺🇸 United States

Lancé Dec 2, 2021 depuis Cape Canaveral Space Force Station

Loading…

Prochains Passages (prochaines 24 heures)

TLE

FraisSource: CelesTrak SupGP

Époque: Sep 15, 2026, 00:56 UTC

1 49769C 21115AX  26258.03937500  .00002087  00000+0  67112-4 0  2580
2 49769  53.1609 359.2193 0001025  89.4243 351.4919 15.31695204    10

Suivez STARLINK-3208 en temps réel avec AllMySat

Download on the App Store